Location: Roc des P�zouls
(43.9667°N, 3.5500°E)
Time: 08:37:01
(UTC+00:00)

BREEZE-M DEB (TANK) - Pass Details

Date: 14 November 2019
Orbit: 398 x 14925 km, 46.0° (Epoch: 09 December)

Event Time Altitude Azimuth Distance (km) Brightness Sun altitude
Exits shadow 04:05:13 30° 69° (ENE) 893 4.4 -27.6°
Drops below altitude 10° 04:06:38 10° 79° (E) 1,518 6.0 -27.4°
Sets 04:08:13 0° 83° (E) 2,303 7.3 -27.1°
